Stations météo

réclame
Mon MeteoGroup
St. Mary's, Grande-Bretagne (3803): Température de l'air & dewpoint: 13.01.2020 20:00:00 - 19.01.2020 20:00:00 (GMT)St. Mary's, Grande-Bretagne (3803): Température de l'air -20cm: 13.01.2020 20:00:00 - 19.01.2020 20:00:00 (GMT)St. Mary's, Grande-Bretagne (3803): Vitesse du vent & gusts: 13.01.2020 20:00:00 - 19.01.2020 20:00:00 (GMT)St. Mary's, Grande-Bretagne (3803): Direction du vent: 13.01.2020 20:00:00 - 19.01.2020 20:00:00 (GMT)St. Mary's, Grande-Bretagne (3803): reduced air pressure: 13.01.2020 20:00:00 - 19.01.2020 20:00:00 (GMT)St. Mary's, Grande-Bretagne (3803): visibility: 13.01.2020 20:00:00 - 19.01.2020 20:00:00 (GMT)St. Mary's, Grande-Bretagne (3803): Quantités de précipitations: 13.01.2020 20:00:00 - 19.01.2020 20:00:00 (GMT)
Date & Time tt [°C] td [°C] tt -20cm [°C] ff [km/h] ff [knt] fx [km/h] fx [knt] dd ppp [hPa] vv [km] rr [mm]
19.01.2020 20:00:00 7,0 3,1 - 13 7 - - E 1048,7 45 0,0
19.01.2020 19:00:00 6,5 2,8 - 9 5 - - E 1048,2 50 0,0
19.01.2020 18:00:00 6,6 2,3 - 13 7 - - E 1047,8 50 0,0
19.01.2020 17:00:00 7,1 2,4 - 11 6 - - ENE 1047,4 50 0,0
19.01.2020 16:00:00 8,1 2,3 - 9 5 - - NE 1047,4 45 0,0
19.01.2020 15:00:00 8,7 2,5 - 8 4 - - NE 1046,9 50 0,0
19.01.2020 14:00:00 8,9 2,8 - 8 4 - - ENE 1046,4 50 0,0
19.01.2020 13:00:00 9,1 4,2 - 9 5 - - E 1046,3 25 0,0
19.01.2020 12:00:00 8,9 4,0 - 11 6 - - E 1046,6 30 0,0
19.01.2020 11:00:00 8,3 3,2 - 13 7 - - E 1046,6 45 0,0
19.01.2020 10:00:00 7,6 2,6 - 16 9 - - E 1045,6 40 0,0
19.01.2020 09:00:00 7,1 3,3 7,2 22 12 - - ENE 1044,6 50 0,0
19.01.2020 08:00:00 7,0 2,5 - 24 13 - - ENE 1043,7 45 0,0
19.01.2020 07:00:00 6,8 2,0 - 24 13 - - ENE 1043,1 50 0,0
19.01.2020 06:00:00 6,6 1,0 - 21 11 - - ENE 1042,4 50 0,0
19.01.2020 05:00:00 6,3 2,3 - 16 9 - - NE 1041,6 45 0,0
19.01.2020 04:00:00 5,9 1,8 - 16 9 - - NNE 1041,1 40 0,0
19.01.2020 03:00:00 6,4 1,4 - 18 10 - - ENE 1040,0 50 0,0
19.01.2020 02:00:00 7,0 2,5 - 26 14 - - ENE 1039,5 50 0,0
19.01.2020 01:00:00 6,9 1,7 - 24 13 - - NE 1039,6 50 0,0
19.01.2020 00:00:00 6,9 2,3 - 28 15 - - ENE 1038,7 35 0,0
18.01.2020 23:00:00 6,9 1,8 - 26 14 - - ENE 1038,0 45 0,0
18.01.2020 22:00:00 6,9 1,2 - 28 15 - - ENE 1036,8 50 0,0
18.01.2020 21:00:00 6,8 1,0 - 24 13 - - NE 1036,0 50 0,0
18.01.2020 20:00:00 7,0 -0,7 - 31 17 - - ENE 1034,8 50 0,0
18.01.2020 19:00:00 7,0 -0,3 - 28 15 - - NE 1033,3 50 0,0
18.01.2020 18:00:00 6,9 -0,5 - 22 12 - - NE 1032,0 50 0,0
18.01.2020 17:00:00 7,5 1,1 - 26 14 - - ENE 1030,7 50 0,0
18.01.2020 16:00:00 8,1 3,1 - 29 16 - - ENE 1029,6 35 0,0
18.01.2020 15:00:00 8,7 3,7 - 31 17 - - E 1028,6 35 0,0
18.01.2020 14:00:00 9,1 4,6 - 29 16 - - E 1028,0 30 0,0
18.01.2020 13:00:00 9,0 4,0 - 34 18 - - E 1027,7 30 0,0
18.01.2020 12:00:00 9,0 3,2 - 35 19 - - E 1027,2 30 0,0
18.01.2020 11:00:00 8,9 3,9 - 29 16 - - E 1027,0 35 0,0
18.01.2020 10:00:00 8,3 3,9 - 28 15 - - E 1026,4 10 0,0
18.01.2020 09:00:00 8,0 4,0 8,0 26 14 - - E 1026,0 10 0,0
18.01.2020 08:00:00 7,7 3,4 - 24 13 - - ESE 1025,2 10 0,0
18.01.2020 07:00:00 7,5 3,6 - 22 12 - - E 1024,8 50 0,0
18.01.2020 06:00:00 7,6 3,4 - 16 9 - - ESE 1025,1 35 0,0
18.01.2020 05:00:00 7,7 3,0 - 11 6 - - ESE 1025,1 45 0,0
18.01.2020 04:00:00 7,3 3,2 - 5 3 - - E 1025,1 45 0,0
18.01.2020 03:00:00 7,2 3,3 - 4 2 - - NE 1025,0 50 0,0
18.01.2020 02:00:00 6,7 2,9 - 8 4 - - NNW 1025,1 50 0,0
18.01.2020 01:00:00 7,0 2,9 - 13 7 - - NNW 1025,2 50 0,0
18.01.2020 00:00:00 7,6 3,4 - 13 7 - - NW 1024,9 45 0,0
17.01.2020 23:00:00 8,0 3,3 - 22 12 - - NW 1024,3 50 0,0
17.01.2020 22:00:00 8,3 3,5 - 34 18 48 26 WNW 1023,5 50 0,0
17.01.2020 21:00:00 8,5 4,3 - 37 20 52 28 W 1022,6 40 0,0
17.01.2020 20:00:00 8,2 4,9 - 37 20 52 28 W 1022,1 30 0,0
17.01.2020 19:00:00 7,7 5,3 - 37 20 52 28 W 1021,5 11 0,0
17.01.2020 18:00:00 7,7 4,2 - 31 17 57 31 W 1020,7 20 0,0
17.01.2020 17:00:00 7,8 3,5 - 35 19 54 29 W 1019,8 40 0,0
17.01.2020 16:00:00 7,4 4,1 - 37 20 67 36 W 1018,8 10 0,0
17.01.2020 15:00:00 7,1 4,8 - 29 16 80 43 W 1018,0 10 1,4
17.01.2020 14:00:00 8,0 2,5 - 42 23 63 34 W 1017,5 10 0,0
17.01.2020 13:00:00 8,5 2,7 - 46 25 67 36 W 1017,2 10 0,0
17.01.2020 12:00:00 7,3 3,4 - 42 23 65 35 W 1017,0 10 0,0
17.01.2020 11:00:00 8,0 2,1 - 39 21 63 34 W 1016,6 10 0,0
17.01.2020 10:00:00 8,1 2,6 - 37 20 63 34 W 1015,7 10 0,0
17.01.2020 09:00:00 7,6 1,4 9,0 39 21 59 32 W 1014,9 10 0,0
17.01.2020 08:00:00 7,8 3,1 - 31 17 63 34 W 1013,8 10 0,0
17.01.2020 07:00:00 7,4 3,5 - 39 21 67 36 W 1012,7 45 0,0
17.01.2020 06:00:00 6,7 4,6 - 29 16 52 28 W 1011,4 35 0,2
17.01.2020 05:00:00 7,2 4,6 - 41 22 61 33 W 1010,0 35 0,0
17.01.2020 04:00:00 7,4 5,9 - 42 23 59 32 W 1007,8 30 0,0
17.01.2020 03:00:00 7,4 5,7 - 42 23 72 39 W 1006,7 50 1,0
17.01.2020 02:00:00 8,1 6,0 - 37 20 68 37 SW 1006,0 4,3 1,0
17.01.2020 01:00:00 9,1 6,9 - 37 20 50 27 SSW 1005,8 18 0,0
17.01.2020 00:00:00 8,5 7,1 - 31 17 52 28 WSW 1006,1 10 0,0
16.01.2020 23:00:00 10,1 7,7 - 31 17 50 27 SSW 1005,8 12 0,0
16.01.2020 22:00:00 8,7 7,2 - 42 23 61 33 S 1006,3 5 0,2
16.01.2020 21:00:00 10,1 8,1 - 35 19 48 26 SSW 1006,2 8 0,0
16.01.2020 20:00:00 9,1 8,2 - 29 16 50 27 SSW 1006,1 11 0,2
16.01.2020 19:00:00 9,9 8,1 - 28 15 46 25 SSW 1006,1 6 0,0
16.01.2020 18:00:00 10,4 8,3 - 28 15 - - SSW 1005,6 8 0,0
16.01.2020 17:00:00 10,2 8,2 - 28 15 - - SW 1005,1 10 0,0
16.01.2020 16:00:00 10,2 8,4 - 39 21 55 30 SW 1004,1 10 0,0
16.01.2020 15:00:00 10,4 8,8 - 48 26 70 38 SW 1003,2 12 0,0
16.01.2020 14:00:00 11,6 10,5 - 52 28 70 38 SW 1001,3 8 0,2
16.01.2020 13:00:00 11,5 11,1 - 59 32 78 42 S 1000,9 3,5 0,2
16.01.2020 12:00:00 11,7 10,7 - 61 33 87 47 S 1000,9 4,0 0,0
16.01.2020 11:00:00 11,4 10,2 - 67 36 93 50 S 1001,3 6 0,6
16.01.2020 10:00:00 11,2 11,1 - 63 34 94 51 S 1001,4 1,2 2,2
16.01.2020 09:00:00 10,9 10,6 9,0 74 40 102 55 SSE 1002,3 4,0 0,6
16.01.2020 08:00:00 10,9 10,0 - 67 36 83 45 SSE 1003,3 5 0,2
16.01.2020 07:00:00 11,1 9,1 - 65 35 80 43 SSE 1005,4 8 0,0
16.01.2020 06:00:00 10,7 8,5 - 63 34 80 43 SSE 1007,1 9 0,0
16.01.2020 05:00:00 10,7 8,2 - 57 31 76 41 S 1008,7 12 0,0
16.01.2020 04:00:00 10,5 7,8 - 55 30 74 40 S 1010,1 12 0,0
16.01.2020 03:00:00 10,5 7,6 - 52 28 68 37 S 1011,3 15 0,0
16.01.2020 02:00:00 10,7 8,1 - 55 30 70 38 S 1012,1 13 0,0
16.01.2020 01:00:00 10,6 8,1 - 50 27 67 36 S 1012,6 12 0,0
16.01.2020 00:00:00 10,7 7,1 - 54 29 65 35 S 1012,9 14 0,0
15.01.2020 23:00:00 10,6 7,4 - 48 26 65 35 S 1013,2 13 0,0
15.01.2020 22:00:00 10,4 7,0 - 48 26 57 31 S 1013,4 14 0,0
15.01.2020 21:00:00 10,3 6,7 - 44 24 52 28 S 1013,8 15 0,0
15.01.2020 20:00:00 10,1 6,6 - 37 20 55 30 SSW 1013,9 24 0,0
15.01.2020 19:00:00 9,8 6,6 - 37 20 57 31 SSW 1013,4 15 0,0
15.01.2020 18:00:00 10,0 6,2 - 41 22 57 31 SW 1013,0 18 0,0
15.01.2020 17:00:00 9,9 5,5 - 41 22 55 30 SW 1012,3 30 0,0
15.01.2020 16:00:00 9,9 5,1 - 37 20 65 35 SW 1011,5 10 0,0
15.01.2020 15:00:00 10,4 4,3 - 44 24 59 32 SW 1010,5 10 0,0
15.01.2020 14:00:00 10,3 4,6 - 39 21 57 31 SW 1010,1 24 0,0
15.01.2020 13:00:00 10,2 4,2 - 39 21 55 30 SW 1009,5 10 0,0
15.01.2020 12:00:00 10,0 2,6 - 39 21 59 32 WSW 1008,6 10 0,0
15.01.2020 11:00:00 9,5 3,2 - 31 17 54 29 WSW 1007,6 10 0,0
15.01.2020 10:00:00 7,9 4,0 - 39 21 65 35 W 1006,4 10 0,0
15.01.2020 09:00:00 8,7 3,4 9,2 35 19 55 30 WSW 1004,9 10 0,0
15.01.2020 08:00:00 8,1 3,9 - 29 16 48 26 W 1003,8 10 0,0
15.01.2020 07:00:00 8,9 3,1 - 37 20 52 28 WSW 1002,5 45 0,0
15.01.2020 06:00:00 8,9 4,0 - 29 16 - - WSW 1001,3 20 0,0
15.01.2020 05:00:00 8,7 3,7 - 28 15 - - WSW 1000,1 35 0,0
15.01.2020 04:00:00 8,7 4,3 - 26 14 - - WSW 1000,0 40 0,0
15.01.2020 03:00:00 8,4 4,6 - 22 12 - - WSW 999,8 27 0,0
15.01.2020 02:00:00 7,8 5,4 - 26 14 - - W 998,9 35 0,2
15.01.2020 01:00:00 8,1 5,8 - 26 14 - - W 998,4 7 0,2
15.01.2020 00:00:00 9,0 5,8 - 24 13 65 35 SW 997,8 15 0,0
14.01.2020 23:00:00 8,8 6,2 - 22 12 - - WSW 996,8 14 0,0
14.01.2020 22:00:00 8,3 6,2 - 21 11 - - WSW 995,9 16 0,2
14.01.2020 21:00:00 8,1 6,7 - 18 10 - - W 994,8 11 0,2
14.01.2020 20:00:00 7,7 6,9 - 18 10 - - W 994,3 17 0,4
14.01.2020 19:00:00 8,7 8,1 - 21 11 - - W 993,7 19 0,4
14.01.2020 18:00:00 9,4 8,9 - 21 11 46 25 WSW 992,7 6 0,0
14.01.2020 17:00:00 10,2 9,5 - 34 18 65 35 WSW 991,3 5 0,0
14.01.2020 16:00:00 11,5 10,7 - 48 26 74 40 SW 990,1 5 0,2
14.01.2020 15:00:00 12,0 10,9 - 59 32 83 45 SW 989,1 4,0 0,0
14.01.2020 14:00:00 11,5 10,8 - 65 35 104 56 SW 988,7 4,0 0,2
14.01.2020 13:00:00 12,8 11,8 - 68 37 102 55 SSW 987,9 4,0 0,0
14.01.2020 12:00:00 12,7 11,6 - 70 38 100 54 SSW 988,1 4,0 0,0
14.01.2020 11:00:00 12,6 11,9 - 67 36 93 50 SSW 988,3 5 0,0
14.01.2020 10:00:00 11,7 11,5 - 74 40 91 49 S 988,4 2,0 0,8
14.01.2020 09:00:00 10,4 10,0 9,0 55 30 72 39 S 989,2 3,0 0,4
14.01.2020 08:00:00 10,3 8,8 - 50 27 65 35 S 991,4 6 0,0
14.01.2020 07:00:00 10,2 8,1 - 41 22 61 33 SSW 993,8 9 0,0
14.01.2020 06:00:00 10,1 7,4 - 37 20 59 32 SSW 994,9 13 0,0
14.01.2020 05:00:00 10,0 6,0 - 42 23 59 32 SW 995,7 12 0,0
14.01.2020 04:00:00 9,8 5,5 - 42 23 59 32 SW 996,2 14 0,0
14.01.2020 03:00:00 8,8 5,9 - 41 22 76 41 SW 996,4 18 0,0
14.01.2020 02:00:00 9,4 5,7 - 41 22 63 34 SW 996,4 16 0,0
14.01.2020 01:00:00 8,8 5,6 - 46 25 63 34 SW 996,7 6 0,0
14.01.2020 00:00:00 9,3 4,9 - 44 24 76 41 SW 996,9 16 0,0
13.01.2020 23:00:00 9,7 4,9 - 44 24 67 36 WSW 996,9 12 0,0
13.01.2020 22:00:00 9,5 4,1 - 52 28 68 37 SW 996,5 15 0,0
13.01.2020 21:00:00 9,5 5,3 - 44 24 76 41 SW 996,1 14 0,0
13.01.2020 20:00:00 9,6 4,3 - 42 23 65 35 WSW 996,0 11 0,0

tt = Température de l'air
td = dewpoint
tt -20cm = Température de l'air -20cm
ff = Vitesse du vent
fx = gusts
dd = Direction du vent
ppp = reduced air pressure
vv = visibility
rr = Quantités de précipitations

stations d'obs. à proximité